Regional Weather Roundup
Issued by NWS

Home | Current Version | Previous Version | Text Only | Print | Product List | Glossary On
Versions: 1 2 3 4 5 6 7 8 9 10 11 12 13 14 15 16 17 18 19 20 21 22 23 24 25 26 27
000
ASUS45 KPSR 291910
RWRAZ

ARIZONA HOURLY REGIONAL WEATHER ROUNDUP
NATIONAL WEATHER SERVICE PHOENIX AZ
1200 PM MST FRI JUL 29 2016

NOTE: FAIR INDICATES FEW OR NO CLOUDS BELOW 12,000 FEET WITH NO
SIGNIFICANT WEATHER AND/OR OBSTRUCTIONS TO VISIBILITY.

AZZ001>003-036-292000-
NORTHWEST ARIZONA

CITY           SKY/WX    TMP DP  RH WIND       PRES   REMARKS
BULLHEAD CITY  SUNNY    109  57  18 SW14      29.74F HX 109
KINGMAN        MOSUNNY   99  51  19 SW14G21   30.00F
$$

AZZ004>008-015-016-018-292000-
NORTH CENTRAL ARIZONA

CITY           SKY/WX    TMP DP  RH WIND       PRES   REMARKS
GRAND CANYON   MOSUNNY   91  37  15 MISG      30.25F
WILLIAMS       MOSUNNY   88  41  19 N8G16     30.34F
PRESCOTT       MOSUNNY   94  44  17 W7        30.13F
FLAGSTAFF      MOSUNNY   86  42  21 SW9       30.27F
PAYSON         SUNNY     91  52  25 W9        30.16F
PAGE           SUNNY    101  29   8 N7        30.00F
$$

AZZ009>014-017-292000-
NORTHEAST ARIZONA

CITY           SKY/WX    TMP DP  RH WIND       PRES   REMARKS
WINSLOW        SUNNY     99  39  12 MISG      30.08F
SAINT JOHNS    SUNNY     95  41  15 NW8       30.14
WINDOW ROCK    MOSUNNY   91  40  16 SW10G18   30.23F
SHOW LOW       SUNNY     86  43  22 SW8       30.24F
$$

AZZ023-292000-
GREATER PHOENIX AREA

CITY           SKY/WX    TMP DP  RH WIND       PRES   REMARKS
PHOENIX        MOSUNNY  103  62  26 W10       29.80F HX 105
BUCKEYE        SUNNY    102  59  24 W6        29.83F HX 102
GLENDALE       MOSUNNY  102  63  27 SW9G17    29.82F HX 104
LUKE AFB       SUNNY    103  64  27 S9        29.80F HX 105
DEER VALLEY    SUNNY     99  61  28 W7        29.83F
SCOTTSDALE     SUNNY    100  61  27 SW5       29.85F HX 101
MESA-GATEWAY   MOSUNNY   99  63  30 VRB5      29.85F HX 100
CHANDLER       MOSUNNY  102  61  25 SW8       29.82F HX 103
$$

AZZ027-028-292000-
SOUTHWEST MARICOPA COUNTY AND PINAL COUNTY

CITY           SKY/WX    TMP DP  RH WIND       PRES   REMARKS
CASA GRANDE    SUNNY    102  61  25 SE6       29.86F HX 103
GILA BEND      MOSUNNY  103  61  25 W13       29.79F HX 104
$$

AZZ503-504-507>509-292000-
SOUTHEAST ARIZONA

CITY           SKY/WX    TMP DP  RH WIND       PRES   REMARKS
TUCSON         SUNNY     98  63  31 N9        29.95F HX 100
DAVIS-MONTHAN  SUNNY     94  63  35 N7        29.94F
RYAN FIELD     SUNNY     97  63  32 N9        29.94F
NOGALES        SUNNY     91  66  43 SW3       30.03F
SIERRA VISTA   MOSUNNY   93  54  26 E7G17     30.11F
DOUGLAS        SUNNY     92  57  30 VRB5      30.05F
SAFFORD        PTSUNNY   96  54  24 CALM      29.96F
$$

AZZ020-021-025-026-031-292000-
SOUTHWEST ARIZONA

CITY           SKY/WX    TMP DP  RH WIND       PRES   REMARKS
YUMA           MOSUNNY  102  69  34 S13G20    29.76F HX 109
$$

CAZ031-033-041-043-047-048-061-292000-
SOUTHERN CALIFORNIA

CITY           SKY/WX    TMP DP  RH WIND       PRES   REMARKS
DOWNTOWN L.A.  SUNNY     86  65  49 W7        29.82S
L.A. AIRPORT   SUNNY     77  65  66 W10       29.85S
SAN DIEGO      MOSUNNY   74  66  76 SW10      29.87F
BURBANK        SUNNY     91  58  32 E10       29.84S
ONTARIO        MOSUNNY   95  54  25 W6        29.85F
RIVERSIDE      SUNNY     96  56  26 VRB6      29.83F
PALM SPRINGS   SUNNY    102  64  28 VRB3      29.78F HX 105
EL CENTRO NAS  MOSUNNY  103  70  34 VRB3      29.75F HX 111
IMPERIAL       SUNNY    103  75  40 SW6       29.73F HX 117
NEEDLES        MOSUNNY  110  58  18 SW8       29.77F HX 110
$$

NVZ020-UTZ003-292000-
SOUTHERN NEVADA-UTAH

CITY           SKY/WX    TMP DP  RH WIND       PRES   REMARKS
LAS VEGAS      PTSUNNY  105  43  12 CALM      29.82F HX 100
SALT LAKE CITY MOSUNNY   97  32  10 N9        30.03F
$$

NMZ009-TXZ055-292000-
NEW MEXICO-WEST TEXAS

CITY           SKY/WX    TMP DP  RH WIND       PRES   REMARKS
ALBUQUERQUE    MOSUNNY   90  50  25 SW16G28   30.15F
EL PASO        MOSUNNY   93  53  25 E12G25    30.07F
$$


........................KEY........................
SKY/WX - SKY CONDITION/WEATHER
TMP    - TEMPERATURE IN FAHRENHEIT
DP     - DEW POINT IN FAHRENHEIT
RH     - RELATIVE HUMIDITY IN PERCENT
WIND   - DIRECTION AND SPEED IN MILES PER HOUR (MPH)
VRB    - VARIABLE WIND DIRECTION
PRES   - MEAN SEA LEVEL PRESSURE IN INCHES OF MERCURY
         F - FALLING PRESSURE   R - RISING PRESSURE
         S - STEADY PRESSURE
VSB    - VISIBILITY IN MILES
HX     - HEAT INDEX IN FAHRENHEIT
WCI    - WIND CHILL INDEX IN FAHRENHEIT
TC     - TEMPERATURE IN CELSIUS WHICH IS ALSO KNOWN AS
         TEMPERATURE IN CENTIGRADE
AFB    - AIR FORCE BASE
         LUKE AFB IS LUKE AIR FORCE BASE
         DAVIS-MONTHAN IS DAVIS-MONTHAN AIR FORCE BASE
NAS    - NAVAL AIR STATION
         EL CENTRO NAS IS EL CENTRO NAVAL AIR STATION
N/A    - NOT AVAILABLE





USA.gov is the U.S. government's official web portal to all federal, state and local government web resources and services.